Hourly Weather Suhodolschina

Today, 25 January, Monday

Time Temperature Precipitation Wind Pressure Humidity
00:00 -1°C° 0 mm 5 mps 722 mmHg 97%
01:00 -1°C° 0 mm 5 mps 722 mmHg 97%
02:00 -1°C° 0 mm 5 mps 723 mmHg 97%
03:00 -1°C° 0 mm 5 mps 723 mmHg 96%
04:00 -1°C° 0 mm 4 mps 723 mmHg 96%
05:00 -1°C° 0 mm 4 mps 724 mmHg 95%
06:00 -2°C° 0 mm 4 mps 724 mmHg 95%
07:00 -1°C° 0 mm 3 mps 724 mmHg 95%
08:00 -1°C° 0 mm 3 mps 724 mmHg 94%
09:00 -2°C° 0 mm 4 mps 724 mmHg 97%
10:00 -2°C° 0 mm 4 mps 725 mmHg 97%
11:00 -2°C° 0 mm 4 mps 726 mmHg 97%
12:00 -1°C° 0 mm 3 mps 726 mmHg 96%
13:00 -1°C° 0 mm 3 mps 726 mmHg 95%
14:00 -1°C° 0 mm 2 mps 726 mmHg 94%
15:00 -1°C° 0 mm 2 mps 726 mmHg 95%
16:00 0°C° 0 mm 1 mps 726 mmHg 95%
17:00 0°C° 0 mm 1 mps 726 mmHg 95%
18:00 0°C° 0 mm 1 mps 726 mmHg 95%
19:00 0°C° 0 mm 1 mps 726 mmHg 94%
20:00 0°C° 0 mm 1 mps 726 mmHg 94%
21:00 -2°C° 0 mm 2 mps 726 mmHg 94%
22:00 -2°C° 0 mm 3 mps 725 mmHg 94%
23:00 -3°C° 0 mm 4 mps 725 mmHg 94%

Tomorrow, 26 January, Tuesday

Time Temperature Precipitation Wind Pressure Humidity
00:00 -4°C° 0.3 mm 5 mps 724 mmHg 95%
01:00 -4°C° 0.3 mm 6 mps 723 mmHg 96%
02:00 -3°C° 0.3 mm 7 mps 723 mmHg 97%
03:00 -3°C° 1.3 mm 7 mps 722 mmHg 97%
04:00 -3°C° 1.3 mm 6 mps 721 mmHg 98%
05:00 -3°C° 1.3 mm 6 mps 720 mmHg 98%
06:00 -2°C° 1.5 mm 6 mps 720 mmHg 98%
07:00 -1°C° 1.5 mm 5 mps 719 mmHg 98%
08:00 -1°C° 1.5 mm 5 mps 719 mmHg 98%
09:00 -1°C° 1.2 mm 4 mps 719 mmHg 98%
10:00 -1°C° 1.2 mm 4 mps 719 mmHg 99%
11:00 0°C° 1.2 mm 3 mps 718 mmHg 99%
12:00 0°C° 0.6 mm 3 mps 718 mmHg 99%
13:00 +1°C° 0.6 mm 2 mps 718 mmHg 99%
14:00 +1°C° 0.6 mm 2 mps 718 mmHg 99%
15:00 +1°C° 0.4 mm 2 mps 718 mmHg 99%
16:00 -1°C° 0.4 mm 2 mps 718 mmHg 99%
17:00 +1°C° 0.4 mm 1 mps 718 mmHg 98%
18:00 +1°C° 0.4 mm 1 mps 719 mmHg 98%
19:00 +1°C° 0.4 mm 1 mps 719 mmHg 99%
20:00 -1°C° 0.4 mm 0 mps 719 mmHg 99%
21:00 +1°C° 0.4 mm 1 mps 719 mmHg 99%
22:00 +1°C° 0.4 mm 1 mps 719 mmHg 98%
23:00 +1°C° 0.4 mm 1 mps 719 mmHg 98%

Day after tomorrow, 27 January, Wednesday

Time Temperature Precipitation Wind Pressure Humidity
00:00 -2°C° 0.4 mm 2 mps 719 mmHg 98%
01:00 -2°C° 0.4 mm 2 mps 719 mmHg 97%
02:00 -2°C° 0.4 mm 3 mps 720 mmHg 97%
03:00 -4°C° 0.3 mm 3 mps 720 mmHg 97%
04:00 -4°C° 0.3 mm 4 mps 720 mmHg 96%
05:00 -5°C° 0.3 mm 5 mps 720 mmHg 96%
06:00 -5°C° 0.3 mm 5 mps 720 mmHg 96%
07:00 -5°C° 0.3 mm 5 mps 721 mmHg 95%
08:00 -5°C° 0.3 mm 6 mps 721 mmHg 95%
09:00 -5°C° 0.2 mm 6 mps 721 mmHg 94%
10:00 -5°C° 0.2 mm 6 mps 722 mmHg 94%
11:00 -5°C° 0.2 mm 6 mps 722 mmHg 94%
12:00 -5°C° 0.3 mm 6 mps 723 mmHg 94%
13:00 -5°C° 0.3 mm 6 mps 723 mmHg 94%
14:00 -5°C° 0.3 mm 6 mps 723 mmHg 94%
15:00 -5°C° 0.1 mm 6 mps 724 mmHg 93%
16:00 -5°C° 0.1 mm 6 mps 724 mmHg 93%
17:00 -5°C° 0.1 mm 5 mps 725 mmHg 92%
18:00 -5°C° 0.1 mm 5 mps 725 mmHg 93%
19:00 -5°C° 0.1 mm 5 mps 726 mmHg 94%
20:00 -5°C° 0.1 mm 5 mps 726 mmHg 94%
21:00 -5°C° 0.1 mm 5 mps 726 mmHg 94%
22:00 -5°C° 0.1 mm 5 mps 727 mmHg 94%
23:00 -5°C° 0.1 mm 5 mps 727 mmHg 93%

28 January, Thursday

Time Temperature Precipitation Wind Pressure Humidity
00:00 -6°C° 0.1 mm 5 mps 727 mmHg 93%
01:00 -6°C° 0.1 mm 5 mps 727 mmHg 93%
02:00 -6°C° 0.1 mm 5 mps 728 mmHg 92%
03:00 -6°C° 0 mm 5 mps 728 mmHg 93%
04:00 -7°C° 0 mm 5 mps 728 mmHg 93%
05:00 -7°C° 0 mm 5 mps 728 mmHg 94%
06:00 -7°C° 0 mm 4 mps 728 mmHg 94%
07:00 -7°C° 0 mm 4 mps 729 mmHg 94%
08:00 -7°C° 0 mm 4 mps 729 mmHg 94%
09:00 -7°C° 0.1 mm 4 mps 729 mmHg 94%
10:00 -7°C° 0.1 mm 4 mps 729 mmHg 94%
11:00 -5°C° 0.1 mm 4 mps 729 mmHg 93%
12:00 -5°C° 0 mm 4 mps 729 mmHg 92%
13:00 -5°C° 0 mm 4 mps 729 mmHg 91%
14:00 -4°C° 0 mm 4 mps 729 mmHg 90%
15:00 -5°C° 0 mm 3 mps 729 mmHg 91%
16:00 -5°C° 0 mm 3 mps 729 mmHg 91%
17:00 -4°C° 0 mm 2 mps 729 mmHg 91%
18:00 -4°C° 0 mm 2 mps 729 mmHg 92%
19:00 -4°C° 0 mm 2 mps 730 mmHg 93%
20:00 -3°C° 0 mm 1 mps 730 mmHg 94%

29 January, Friday

Time Temperature Precipitation Wind Pressure Humidity

30 January, Saturday

Time Temperature Precipitation Wind Pressure Humidity
Show more